Regional Weather Roundup
Issued by NWS Jackson, KY

Home | Current Version | Previous Version | Graphics & Text | Print | Product List | Glossary On
Versions: 1 2 3 4 5 6 7 8 9 10 11 12 13 14 15 16 17 18 19 20 21 22 23 24 25 26 27 28 29 30 31 32 33 34 35 36 37 38 39 40 41 42 43 44 45 46 47 48 49 50
000
ASUS43 KJKL 220919
RWRJKL

EAST KENTUCKY HOURLY WEATHER ROUNDUP
NATIONAL WEATHER SERVICE JACKSON KY
500 AM EDT MON SEP 22 2014

NOTE: "FAIR" INDICATES FEW OR NO CLOUDS BELOW 12,000 FEET WITH
NO SIGNIFICANT WEATHER AND/OR OBSTRUCTIONS TO VISIBILITY.

* THESE REPORTS ARE NOT UNDER NWS QUALITY CONTROL AND MAY NOT
  REPORT WEATHER SUCH AS PRECIPITATION AND FOG.

KYZ079-080-083-085-087-088-110-112-115-119-120-221000
...EASTERN KENTUCKY...

CITY           SKY/WX    TMP DP  RH WIND       PRES   REMARKS
JACKSON        CLEAR     53  46  77 NW5       30.08R
LONDON         CLEAR     53  47  79 CALM      30.10R
SOMERSET*      CLEAR     50  46  87 N5        30.11S
MONTICELLO*    CLEAR     49  48  96 CALM      30.12R
MIDDLESBORO*   CLEAR     52  51  97 CALM      30.09R
HARLAN APT*    SUNNY     52  50  93 MISG      30.08R
BLACK MTN*       N/A     45  45 100 N6          N/A
PIKEVILLE APT* CLOUDY    52  48  87 NW6       30.07R
BIG SANDY*     CLOUDY    55  50  83 CALM      30.07R
MOREHEAD APT*  SUNNY     52  48  87 CALM      30.11R
ASHLAND*       CLOUDY    57  46  67 N3        30.05
$$

KYZ035-036-041-042-044-050-067-078-099-221000
...CENTRAL KENTUCKY...

CITY           SKY/WX    TMP DP  RH WIND       PRES   REMARKS
MT STERLING*   CLEAR     46  46 100 CALM      30.11R
FLEMING/MASON* CLEAR     50  46  87 NW8       30.10R
DANVILLE*      CLEAR     48  46  93 CALM      30.12R
RICHMOND*      CLEAR     50  45  81 CALM      30.11R
LEXINGTON      CLEAR     52  47  83 NW6       30.10R
FRANKFORT      CLEAR     49  46  90 CALM      30.10R
$$

KYZ091>093-OHZ055-061-077-WVZ005-015-034-035-042-221000
...SOUTHERN OHIO/WEST VIRGINIA...

CITY           SKY/WX    TMP DP  RH WIND       PRES   REMARKS
COVINGTON      PTCLDY    52  45  77 N13       30.10R
COLUMBUS       MOCLDY    56  47  71 VRB5      30.04R
DAYTON         MOCLDY    48  42  80 NW8       30.11R
WILMINGTON     MOCLDY    50  45  83 N9        30.08R
HUNTINGTON     CLOUDY    56  49  77 W5        30.05R
CHARLESTON     CLOUDY    57  51  80 W6        30.03R
PINEVILLE*     CLEAR     53  53 100 MISG      30.09R
BECKLEY        CLOUDY    52  46  80 NW9       30.04R
BLUEFIELD      MOCLDY    53  47  79 W8        30.05R
$$

VAZ002-007-008-TNZ017-027-036-066-071-221000
...SOUTHWEST VIRGINIA/EAST TENNESSEE...

CITY           SKY/WX    TMP DP  RH WIND       PRES   REMARKS
WISE*          CLEAR     52  45  76 NW3       30.09R
JONESVILLE*    SUNNY     57  50  77 NW5       30.08R
ABINGDON*      CLEAR     56  50  78 W3        30.06R
BRISTOL        CLEAR     51  48  89 CALM      30.04R
KNOXVILLE      CLEAR     60  52  74 N8        30.05R
OAK RIDGE      CLEAR     56  52  86 CALM      30.08R
CROSSVILLE     CLEAR     54  48  80 N6        30.09S
NASHVILLE      CLEAR     58  51  78 N7        30.11R
$$

...KEY TO REMARKS...
VSB - VISIBILITY IN MILES
WCI - WIND CHILL INDEX
HX  - HEAT INDEX

$$


USA.gov is the U.S. government's official web portal to all federal, state and local government web resources and services.